[[{"header":{"parameterUnit":"m.s-1","parameterCategory":1,"la1":30.2991,"la2":30.254,"lo1":-89.0895,"lo2":-89.0444,"dy":0.0017,"dx":0.0017,"nx":28,"ny":28,"refTime":"2023-07-20T09:00:00:Z","depth":0,"parameterNumber":2,"parameterNumberName":"U-component_of_WINDS"},"data":[0,0,0,0,0,0,0,0,0,0,0,0,0,0,0,0,0,0,0,0,0,0,0,0,0,0,0,0,0,0,0,0,0,0,0,0,0,0,0,0,0,0,0,0,0,0,0,0,0,0,0,0,0,0,0,0,0,0,0.8901,0.8902,0,0.8996,0.8997,0.8998,0.9035,0.9035,0.9035,0.9034,0.9137,0.914,0.9143,0,0,0,0,0,0,0,0,0,0,0,0,0,0.8759,0.8761,0.8901,0.8902,0.8903,0.8995,0.8997,0.8998,0.9035,0.9035,0.9034,0.9034,0.9136,0.914,0.9144,0,0,0,0,0,0,0,0,0,0,0,0,0,0.8834,0.8762,0.8901,0.8933,0.8937,0.8995,0.8997,0.8998,0.9035,0.9035,0.9034,0.9034,0.9135,0.914,0.9144,0.918,0,0,0.9158,0.916,0,0,0,0,0,0,0,0,0.883,0.8839,0.8927,0.8931,0.8935,0.9003,0.8985,0.906,0.9035,0.8998,0.9034,0.9034,0.9094,0.9101,0.912,0.9185,0.9189,0.9158,0.9161,0.9163,0.9164,0,0,0,0,0,0,0,0.8824,0.8835,0.8939,0.8928,0.8933,0.8945,0.8955,0.8999,0.9047,0.9001,0.9004,0.9014,0.9096,0.9116,0.9123,0.9191,0.9158,0.9162,0.9165,0.9167,0.929,0.9291,0,0,0,0,0,0,0.8813,0.8831,0.8936,0.8942,0.888,0.8947,0.8959,0.8982,0.9047,0.9056,0.9015,0.9016,0.9108,0.9118,0.9127,0.9173,0.9163,0.9167,0.917,0.9289,0.929,0.9291,0,0,0,0,0,0,0.881,0.8822,0.8932,0.8887,0.8902,0.895,0.8976,0.8984,0.9004,0.9057,0.9066,0.9026,0.9108,0.912,0.9166,0.9177,0.9169,0.9173,0.9289,0.929,0.9291,0.9266,0,0,0,0,0,0,0.8805,0.8821,0.8833,0.8887,0.8904,0.8968,0.8976,0.8986,0.9011,0.9013,0.907,0.9079,0.9109,0.9159,0.917,0.9183,0.9177,0.9288,0.9289,0.929,0.9266,0.9266,0.9266,0,0,0,0,0,0.88,0.8824,0.8834,0.8846,0.892,0.8968,0.8978,0.9011,0.9011,0.9026,0.906,0.9077,0.9174,0.9163,0.9177,0.9191,0.9288,0.9289,0.929,0.9267,0.9266,0.9266,0,0,0,0,0,0,0.8773,0.8832,0.8843,0.8884,0.8921,0.8974,0.8993,0.9009,0.9048,0.9049,0.909,0.9102,0.9145,0.9173,0.916,0.923,0.9232,0.9236,0.921,0.921,0.921,0.9203,0.918,0,0,0,0,0,0.8771,0.8803,0.8853,0.8885,0.8903,0.8944,0.8967,0.8988,0.9029,0.9045,0.9082,0.9122,0.9162,0.9188,0.9227,0.927,0.9284,0.9287,0.9287,0.9286,0.929,0.9316,0.9318,0.9295,0.9295,0.9295,0,0,0.8769,0.8805,0.8823,0.888,0.8911,0.8945,0.8957,0.8993,0.902,0.9051,0.9096,0.9125,0.9173,0.9217,0.9239,0.9242,0.9299,0.9288,0.9287,0.9291,0.9318,0.932,0.9322,0.9296,0.9296,0.9296,0,0,0.8782,0.8812,0.8842,0.8872,0.8917,0.8945,0.8952,0.9003,0.9023,0.9068,0.9093,0.9126,0.9193,0.9226,0.9251,0.9277,0.9295,0.9288,0.9289,0.9314,0.9315,0.9317,0.9327,0.933,0.9291,0.9291,0.9291,0,0.8774,0.8824,0.8856,0.8889,0.8915,0.8942,0.8974,0.9003,0.906,0.9077,0.9079,0.9164,0.9198,0.9251,0.9257,0.9277,0.9287,0.9283,0.9312,0.9314,0.9317,0.9327,0.933,0.929,0.9291,0.9291,0.9291,0,0.8813,0.8847,0.8866,0.8918,0.8946,0.8978,0.9016,0.9041,0.906,0.9088,0.9134,0.9176,0.9224,0.9238,0.9258,0.9295,0.9295,0.9304,0.9308,0.9317,0.9328,0.9332,0.9289,0.9289,0.929,0.929,0,0,0.8813,0.888,0.8887,0.8911,0.8963,0.8992,0.9026,0.9071,0.9092,0.913,0.9162,0.9217,0.9226,0.9255,0.9278,0.93,0.9318,0.9307,0.9308,0.9308,0.9363,0.9356,0.936,0.933,0.9331,0.9332,0.9359,0,0.8834,0.8894,0.8923,0.8972,0.9005,0.9032,0.9062,0.9099,0.9126,0.9159,0.919,0.9229,0.9237,0.9254,0.9277,0.9311,0.933,0.931,0.9362,0.9363,0.935,0.9366,0.9359,0.9383,0.9363,0.9364,0.9364,0,0.8867,0.8903,0.8954,0.9002,0.9017,0.9044,0.9088,0.9119,0.9161,0.918,0.9211,0.9234,0.9273,0.9273,0.9329,0.9314,0.9337,0.9357,0.9359,0.9366,0.9365,0.9374,0.9392,0.9395,0.9371,0.937,0.937,0,0.8862,0.8924,0.8963,0.8983,0.9039,0.9058,0.9083,0.9124,0.915,0.9189,0.9206,0.9249,0.9274,0.9308,0.9343,0.9339,0.9396,0.9398,0.9414,0.9413,0.9426,0.9425,0.9448,0.9438,0.9438,0.9438,0.9438,0,0.8884,0.8915,0.8962,0.8986,0.9021,0.9055,0.909,0.9117,0.9154,0.9186,0.9212,0.9241,0.9284,0.932,0.9347,0.939,0.94,0.9418,0.9425,0.9416,0.9414,0.9433,0.9433,0.9439,0.9439,0.9439,0.9439,0,0.8886,0.8918,0.8962,0.9012,0.9025,0.9049,0.9093,0.9119,0.9146,0.9185,0.9197,0.9241,0.9284,0.9321,0.9379,0.9397,0.9442,0.945,0.9427,0.9431,0.9445,0.9443,0.9482,0.9489,0.9473,0.9473,0.9473,0,0.8898,0.8922,0.8973,0.8995,0.9019,0.9054,0.9079,0.9113,0.9139,0.9189,0.9209,0.9253,0.929,0.9358,0.9396,0.9441,0.9451,0.9461,0.9458,0.9448,0.9453,0.9451,0.9454,0.9462,0.9462,0.9462,0.9462,0,0.8916,0.8931,0.8965,0.9005,0.9034,0.9068,0.9103,0.912,0.9161,0.9189,0.9232,0.926,0.9318,0.9362,0.941,0.9439,0.9458,0.9462,0.9468,0.946,0.9446,0.9455,0.9428,0.9462,0.9462,0.9462,0.9462,0.9462,0.8924,0.8947,0.8987,0.9024,0.9054,0.9085,0.9112,0.9142,0.9177,0.9225,0.9244,0.9288,0.9331,0.9397,0.9425,0.9461,0.9464,0.9473,0.9476,0.9478,0.9477,0.9439,0.947,0.947,0.947,0.947,0.947,0,0.8945,0.8971,0.9005,0.9052,0.9082,0.9095,0.9134,0.9159,0.9197,0.9234,0.9269,0.9319,0.9362,0.9403,0.9449,0.947,0.948,0.9481,0.9481,0.9487,0.947,0.9461,0.9472,0.9472,0.9472,0.9472,0.9472,0.9472,0.8959,0.8998,0.9018,0.9072,0.9099,0.9141,0.9162,0.9192,0.9222,0.9275,0.931,0.9336,0.9376,0.9424,0.9464,0.9476,0.9492,0.9491,0.9505,0.9489,0.9488,0.9488,0.9479,0.9494,0.9494,0.9518,0.9519,0.9519]},{"header":{"parameterUnit":"m.s-1","parameterCategory":1,"la1":30.2991,"la2":30.254,"lo1":-89.0895,"lo2":-89.0444,"dy":0.0017,"dx":0.0017,"nx":28,"ny":28,"refTime":"2023-07-20T09:00:00:Z","depth":0,"parameterNumber":3,"parameterNumberName":"V-component_of_WINDS"},"data":[0,0,0,0,0,0,0,0,0,0,0,0,0,0,0,0,0,0,0,0,0,0,0,0,0,0,0,0,0,0,0,0,0,0,0,0,0,0,0,0,0,0,0,0,0,0,0,0,0,0,0,0,0,0,0,0,0,0,2.3682,2.3682,0,2.3693,2.3693,2.3693,2.3694,2.3694,2.3694,2.3694,2.3703,2.3703,2.3704,0,0,0,0,0,0,0,0,0,0,0,0,0,2.3659,2.366,2.3682,2.3682,2.3682,2.3693,2.3693,2.3693,2.3694,2.3694,2.3694,2.3694,2.3703,2.3703,2.3704,0,0,0,0,0,0,0,0,0,0,0,0,0,2.367,2.366,2.3682,2.3684,2.3685,2.3693,2.3693,2.3693,2.3694,2.3694,2.3694,2.3694,2.3703,2.3703,2.3704,2.371,0,0,2.3705,2.3706,0,0,0,0,0,0,0,0,2.3669,2.367,2.3684,2.3684,2.3685,2.3692,2.3688,2.3699,2.3694,2.3691,2.3694,2.3694,2.3699,2.37,2.3702,2.371,2.3711,2.3705,2.3706,2.3706,2.3706,0,0,0,0,0,0,0,2.3668,2.367,2.3686,2.3684,2.3684,2.3684,2.3685,2.369,2.3696,2.3691,2.3691,2.3692,2.37,2.3702,2.3703,2.3711,2.3705,2.3706,2.3706,2.3706,2.3722,2.3722,0,0,0,0,0,0,2.3668,2.3669,2.3686,2.3687,2.3676,2.3684,2.3686,2.369,2.3696,2.3696,2.3692,2.3692,2.3701,2.3702,2.3703,2.3709,2.3706,2.3706,2.3707,2.3722,2.3722,2.3722,0,0,0,0,0,0,2.3667,2.3669,2.3686,2.3678,2.368,2.3685,2.3689,2.369,2.3693,2.3697,2.3698,2.3694,2.3701,2.3702,2.3708,2.371,2.3707,2.3707,2.3722,2.3722,2.3722,2.3723,0,0,0,0,0,0,2.3666,2.3669,2.3672,2.3678,2.3681,2.3691,2.369,2.369,2.3694,2.3694,2.3699,2.3699,2.3701,2.3707,2.3708,2.371,2.3707,2.3722,2.3722,2.3722,2.3723,2.3723,2.3724,0,0,0,0,0,2.3666,2.3672,2.3672,2.3674,2.3685,2.3691,2.3693,2.3695,2.3694,2.3697,2.3699,2.3699,2.3709,2.3708,2.3709,2.3711,2.3722,2.3722,2.3722,2.3723,2.3723,2.3724,0,0,0,0,0,0,2.3666,2.3673,2.3673,2.3682,2.3686,2.3692,2.3695,2.3696,2.37,2.37,2.3702,2.3703,2.3708,2.371,2.3708,2.3717,2.3715,2.3716,2.3715,2.3716,2.3716,2.3715,2.3708,0,0,0,0,0,2.3667,2.3673,2.3678,2.3685,2.3687,2.3691,2.3694,2.3695,2.3699,2.3701,2.3704,2.3707,2.3711,2.3713,2.3717,2.3723,2.3723,2.3725,2.3726,2.3726,2.3726,2.3728,2.3728,2.3723,2.3723,2.3723,0,0,2.367,2.3674,2.3678,2.3685,2.3689,2.3693,2.3692,2.3698,2.3701,2.3702,2.3707,2.3709,2.3713,2.3718,2.3721,2.372,2.3728,2.3726,2.3726,2.3727,2.3728,2.3729,2.3729,2.3724,2.3724,2.3723,0,0,2.3676,2.3681,2.3686,2.369,2.3694,2.3697,2.3698,2.3703,2.3704,2.371,2.371,2.3713,2.372,2.3722,2.3724,2.3729,2.3729,2.373,2.3732,2.3734,2.3734,2.3734,2.3735,2.3736,2.3731,2.3731,2.3731,0,2.3679,2.3687,2.3689,2.3694,2.3697,2.3698,2.3702,2.3705,2.3711,2.3712,2.3711,2.3719,2.3722,2.3727,2.3728,2.373,2.373,2.373,2.3734,2.3734,2.3735,2.3735,2.3736,2.3731,2.3731,2.3731,2.3731,0,2.3688,2.3693,2.3697,2.3703,2.3706,2.3711,2.3713,2.3715,2.3716,2.3718,2.3722,2.3725,2.3729,2.373,2.3731,2.3735,2.3734,2.3734,2.3732,2.3735,2.3736,2.3736,2.3731,2.3731,2.3731,2.3731,0,0,2.3697,2.3702,2.3704,2.3705,2.371,2.3713,2.3717,2.3721,2.3723,2.3726,2.3729,2.3734,2.3733,2.3735,2.3736,2.3737,2.374,2.3737,2.3737,2.3736,2.3743,2.3743,2.3744,2.374,2.374,2.374,2.3742,0,2.3703,2.3711,2.3713,2.3719,2.3723,2.3723,2.3726,2.3728,2.373,2.3732,2.3733,2.3736,2.3736,2.3737,2.3738,2.3739,2.3741,2.3739,2.3741,2.3741,2.374,2.3744,2.3745,2.3747,2.3743,2.3743,2.3743,0,2.3712,2.3715,2.3722,2.3725,2.3726,2.3729,2.3732,2.3735,2.3737,2.3738,2.374,2.374,2.3742,2.3741,2.3744,2.3743,2.3743,2.3744,2.3744,2.3744,2.3742,2.3744,2.3748,2.3748,2.3744,2.3744,2.3744,0,2.3716,2.3722,2.3727,2.3728,2.3732,2.3734,2.3735,2.3737,2.3739,2.3741,2.3742,2.3744,2.3745,2.3746,2.3746,2.3745,2.3749,2.3748,2.3749,2.3749,2.375,2.375,2.3754,2.3751,2.3751,2.3751,2.3751,0,2.3723,2.3727,2.3728,2.3731,2.3735,2.3736,2.3739,2.3741,2.3742,2.3744,2.3744,2.3746,2.3746,2.3748,2.3748,2.375,2.375,2.375,2.375,2.375,2.375,2.3751,2.375,2.3751,2.3751,2.3751,2.3751,0,2.3728,2.3729,2.3734,2.3737,2.3737,2.374,2.3741,2.3743,2.3744,2.3747,2.3747,2.3748,2.375,2.375,2.3752,2.3752,2.3754,2.3754,2.3753,2.3753,2.3754,2.3754,2.3758,2.3758,2.3756,2.3756,2.3756,0,2.3732,2.3735,2.3737,2.3739,2.374,2.3743,2.3744,2.3745,2.3746,2.3748,2.3749,2.3751,2.3752,2.3755,2.3755,2.3756,2.3756,2.3757,2.3756,2.3755,2.3755,2.3755,2.3755,2.3757,2.3758,2.3758,2.3758,0,2.3739,2.3739,2.3741,2.3744,2.3745,2.3747,2.3749,2.375,2.375,2.3752,2.3753,2.3754,2.3756,2.3757,2.3758,2.3758,2.3758,2.3758,2.3758,2.3758,2.3757,2.3757,2.3754,2.3758,2.3758,2.3758,2.3758,2.3758,2.3743,2.3745,2.3747,2.3749,2.375,2.3751,2.3753,2.3753,2.3755,2.3757,2.3757,2.3758,2.3759,2.376,2.376,2.3761,2.376,2.376,2.3761,2.3761,2.376,2.3757,2.3761,2.3761,2.3761,2.3761,2.3761,0,2.3749,2.375,2.3752,2.3754,2.3755,2.3754,2.3756,2.3757,2.3758,2.3759,2.376,2.3761,2.3762,2.3762,2.3763,2.3763,2.3763,2.3763,2.3763,2.3763,2.3761,2.3761,2.3763,2.3763,2.3763,2.3763,2.3763,2.3763,2.3752,2.3755,2.3755,2.3758,2.3759,2.376,2.3761,2.3762,2.3762,2.3763,2.3764,2.3764,2.3764,2.3765,2.3765,2.3765,2.3765,2.3765,2.3765,2.3763,2.3763,2.3763,2.3762,2.3765,2.3765,2.3766,2.3766,2.3766]}]]